COSMOS 1275 DEB, 13468

Orbit data source: Space-Track

COSMOS 1275 DEB, 13468 is space debris in LEO originally from a launch on Thu, 04 Jun 1981 UTC launched from the Plesetsk Missile And Space Complex (PKMTR). Debris objects in space refer to the collection of defunct objects orbiting the Earth. Examples of debris include non-operational satellites, rocket bodies, and fragments generated from explosions, collisions, or faulty payload assembly.

Loading next visibility...
Identifier
13468, 1981-053FQ
Orbit
LEO
Country
Flag of CISCIS
Related business
Manufacturer
Unknown
Mission
Spacecraft
Bus & Motor
Unknown
Mass
Unknown
Launch date (UTC)
1981-06-04 (45 years ago)
Launch vehicle
Unknown
Launch site
Plesetsk Missile And Space Complex (PKMTR)
Object type
Payload
Rocket body
Debris
Shape & HBR
Unknown shape, 0.1 m
Radar Cross Section
Medium (>0.1 m² and <1 m²)

Expand to show TLE details & history
Last TLE update: 12 hours ago

TLE from 12 hours ago
0 COSMOS 1275 DEB
1 13468U 81053FQ  26174.96936390  .00001002  00000-0  74582-3 0  9996
2 13468  82.7042 143.2441 0062560 168.3734 259.7598 13.93140021218018
Epoch: 2026-06-23T23:15Z
TLE epoch observation values (Epoch: 2026-06-23T23:15:53.040Z)
Latitude
66.42098°
Longitude
-100.89405°
Altitude
937.523 km
Speed
7.385 km/s
True Right ascension
10h 40m 50s
True Declination
66° 17' 52"
Sunlit
Object was in daylight at epoch
Visualization orbit readout
Latitude
Unknown
Longitude
Unknown
Altitude
Unknown
Speed
Unknown
Apparent Right ascension
Unknown
Apparent Declination
Unknown
Sunlit
N/A
Visualization observer readout
Local Sidereal Time
22:43:22
Azimuth
Unknown
Elevation
Unknown
Doppler factor
Unknown
Orbital elements
Apogee altitude
960.405 km
Perigee altitude
869.156 km
Semi-major axis
7,292.917 km
Eccentricity
0.00626
Inclination
82.7042°
RAAN
143.2441°
Arg. of periapsis
168.3734°
True anomaly
259.05533°
Mean anomaly
259.7598°
Eccentric anomaly
259.40747°
Mean motion
3.48491 °/min
Orbital period
103.3 mins
BSTAR
0.00074582
Loading maneuver chart data...
Computing Atmospheric mass density...
Loading historical data...
Loading historical data...
Loading historical data...
Loading historical data...
Loading historical data...
Loading historical data...
Loading historical data...

Documentation

Showing up to 5 results
|